Regional Weather Roundup
Issued by NWS

Home | Current Version | Previous Version | Graphics & Text | Print | Product List | Glossary On
Versions: 1 2 3 4 5 6 7 8 9 10 11 12 13 14 15 16 17 18 19 20 21 22 23 24 25 26 27 28 29 30 31 32 33 34 35 36 37 38 39 40 41 42 43 44 45 46 47 48 49 50
000
ASUS43 KLMK 161102
RWRKY
KENTUCKY REGIONAL WEATHER ROUNDUP
NATIONAL WEATHER SERVICE LOUISVILLE KY
700 AM EDT WED APR 16 2014

NOTE "FAIR" INDICATES FEW OR NO CLOUDS BELOW 12,000 FEET
WITH NO SIGNIFICANT WEATHER AND/OR OBSTRUCTIONS TO VISIBILITY.

KYZ001>023-026-027-061>063-070>075-161200-
WESTERN AND SOUTH CENTRAL KENTUCKY

CITY           SKY/WX    TMP DP  RH WIND       PRES   REMARKS
PADUCAH        CLEAR     34  25  69 SE6       30.27S WCI  29
HENDERSON      CLEAR     34  21  60 SE7       30.32R WCI  28
OWENSBORO      CLEAR     31  23  72 SE10      30.33S WCI  22
HOPKINSVILLE   CLEAR     32  23  69 E9        30.29S WCI  24
BOWLING GREEN  CLEAR     28  21  75 E5        30.34R WCI  23
GLASGOW        NOT AVBL
$$

KYZ024-025-028>034-038-045-046-053-161200-
NORTH CENTRAL KENTUCKY

CITY           SKY/WX    TMP DP  RH WIND       PRES   REMARKS
LOUISVILLE/SDF PTCLDY    32  20  61 E7        30.36S WCI  26
LOUISVILLE/LOU CLEAR     33  19  56 E3        30.37R
FORT KNOX      CLEAR     29  20  70 E5        30.33S WCI  24
$$

KYZ035>037-039>044-047>052-055>060-089>105-161200-
NORTHEAST KENTUCKY

CITY           SKY/WX    TMP DP  RH WIND       PRES   REMARKS
LEXINGTON      CLEAR     29  18  63 E6        30.37R WCI  23
COVINGTON      PTCLDY    28  17  63 SE6       30.37R WCI  22
FRANKFORT      CLEAR     27  22  81 E3        30.36R
$$

KYZ054-064>069-076>088-106>120-161200-
SOUTHEAST KENTUCKY

CITY           SKY/WX    TMP DP  RH WIND       PRES   REMARKS
JACKSON        CLEAR     27  18  69 VRB3      30.34R
LONDON         CLEAR     30  20  66 NE5       30.33R WCI  25
SOMERSET       NOT AVBL
MIDDLESBORO    NOT AVBL
MONTICELLO     SUNNY     42  39  89 NE6       30.35R
$$




USA.gov is the U.S. government's official web portal to all federal, state and local government web resources and services.